Location: Fiddletown
(38.4917°N, 120.6633°W)
Time: 06:30:11
(UTC-07:00)

Envisat - Visible Passes

Search period start: 31 July 2014 00:00
Search period end: 10 August 2014 00:00
Orbit: 765 x 767 km, 98.4° (Epoch: 31 July)

Date Brightness Start Highest point End Pass type
(mag) Time Alt. Az. Time Alt. Az. Time Alt. Az.
31 Jul 4.5 21:15:05 13° ESE 21:17:53 20° ENE 21:21:31 10° NNE visible
31 Jul 3.7 22:55:18 38° SW 22:56:31 46° W 23:01:24 10° NNW visible
01 Aug 2.9 22:18:24 45° SSE 22:19:58 78° ENE 22:25:03 10° N visible
01 Aug 5.5 23:58:37 10° W 23:59:31 11° W 00:00:33 10° WNW visible
02 Aug 3.8 21:41:30 25° ESE 21:43:36 34° ENE 21:48:10 10° N visible
02 Aug 4.6 23:21:43 24° WSW 23:22:37 25° W 23:26:48 10° NW visible
03 Aug 4.8 21:04:36 11° E 21:07:26 16° ENE 21:10:29 10° NNE visible
03 Aug 3.3 22:44:49 47° SSW 22:45:56 58° W 22:50:57 10° NNW visible
04 Aug 3.1 22:07:55 42° SE 22:09:25 62° ENE 22:14:26 10° N visible
04 Aug 5.3 23:48:08 14° W 23:48:49 14° W 23:51:24 10° WNW visible
05 Aug 4.1 21:31:01 21° ESE 21:33:07 28° ENE 21:37:22 10° N visible
05 Aug 4.2 23:11:14 31° WSW 23:11:59 32° W 23:16:31 10° NNW visible
06 Aug 5.0 20:54:47 10° E 20:57:00 13° ENE 20:59:14 10° NE visible
06 Aug 3.0 22:34:21 56° SSW 22:35:21 74° WSW 22:40:26 10° NNW visible
07 Aug 3.3 21:57:27 38° ESE 21:58:54 48° ENE 22:03:46 10° N visible
07 Aug 5.1 23:37:40 18° W 23:38:08 18° W 23:41:32 10° NW visible
08 Aug 4.4 21:20:34 17° E 21:22:38 22° ENE 21:26:30 10° NNE visible
08 Aug 3.9 23:00:47 39° WSW 23:01:22 40° W 23:06:08 10° NNW visible
09 Aug 5.1 20:46:11 10° ENE 20:46:35 10° ENE 20:46:59 10° NE visible
09 Aug 2.9 22:23:53 62° SSE 22:24:46 87° ENE 22:29:53 10° NNW visible
